Preview of NWS' New Version of Forecast
This preview is not operational and should not be used for support decisions.

Regional Weather Roundup (RWR)

Issued by National Weather Service (NWS)

                            
000
ASUS43 KLSX 240857
RWRMO 

WEATHER SUMMARY FOR MISSOURI
NATIONAL WEATHER SERVICE SPRINGFIELD MO
400 AM CDT WED APR 24 2019

NOTE: "FAIR" INDICATES FEW OR NO CLOUDS BELOW 12,000 FEET WITH NO
       SIGNIFICANT WEATHER AND/OR OBSTRUCTIONS TO VISIBILITY.
       CURRENT SKY AND/OR WEATHER CONDITIONS ARE NOT AVAILABLE FOR
       CHILLICOTHE AND FARMINGTON.

MOZ001>031-035>038-043-044-053-054-241000-
...NORTHERN AND WESTERN MISSOURI...
  
CITY           SKY/WX    TMP DP  RH WIND       PRES   REMARKS
KANSAS CTY INT CLOUDY    52  50  93 CALM      29.95F                  
LEE'S SUMMIT   CLOUDY    53  51  93 CALM      29.94F FOG              
ST JOSEPH      CLOUDY    52  51  97 CALM      29.96F                  
CHILLICOTHE      N/A     53  50  89 CALM      29.97F                  
     
$$
MOZ066>068-077>081-088>096-101>105-241000-
...SOUTHWEST MISSOURI...
  
CITY           SKY/WX    TMP DP  RH WIND       PRES   REMARKS
SPRINGFIELD    FOG       57  55  93 CALM      29.90F VSB 3/4          
JOPLIN         FOG       55  55 100 CALM      29.92F VSB 1/4          
               
$$
MOZ032>034-039>042-045>050-055>058-069>072-241000-
...CENTRAL MISSOURI...  
  
CITY           SKY/WX    TMP DP  RH WIND       PRES   REMARKS
COLUMBIA       NOT AVBL                                               
JEFFERSON CITY RAIN      57  54  89 E3        29.93S FOG              
ROLLA          LGT RAIN  56  54  93 E7        29.92F FOG              
SEDALIA        CLOUDY    52  52 100 N5        29.94S FOG              
WARRENSBURG    CLOUDY    52  52 100 NW3       29.95F FOG              
               
$$
MOZ051-052-059>065-241000-
...EAST CENTRAL MISSOURI...
  
CITY           SKY/WX    TMP DP  RH WIND       PRES   REMARKS
ST LOUIS INTL  LGT RAIN  57  55  93 E9        29.94F                  
                   
$$
MOZ072>076-082>087-097>100-106>115-241000-
...SOUTH CENTRAL AND SOUTHEAST MISSOURI...
  
CITY           SKY/WX    TMP DP  RH WIND       PRES   REMARKS
CAPE GIRARDEAU FAIR      58  56  93 CALM      29.94R FOG              
POPLAR BLUFF   FAIR      58  58 100 CALM      29.93S                  
WEST PLAINS    CLOUDY    63  56  78 SW6       29.93S                  
                                       
$$